Flag for Germany Weather past 2 weeks in Nürburg, Rhineland-Palatinate, Germany

Now
48 °F

Overcast.


Feels Like: 47 °F
Forecast: 45 / 59 °F
Wind: 3 mph from South

Location: Nuerburg-Barweiler

Current Time: May 28, 2015 at 7:12:51 AM

Latest Report: May 28, 2015 at 6:00 AM


Visibility: 22 mi

Pressure: 30.05 "Hg

Humidity: 72%

Dew point: 39 °F

Location of NürburgLocation

Historic Weather in Nürburg — Graph

°F

Nürburg temperature yesterday

Maximum temperature yesterday: 56 °F (at 7:00 PM)
Minimum temperature yesterday: 42 °F (at 5:00 AM)
Average temperature yesterday: 48 °F

Past Weeks' High & Low Weather Summary

 TemperatureHumidityPressure
High65 °F (May 13, 4:00 PM)99% (May 15, 3:00 AM)30.36 "Hg (May 15, 3:00 AM)
Low36 °F (May 16, 6:00 AM)31% (May 13, 2:00 PM)29.68 "Hg (May 18, 8:00 PM)
Average51 °F70%30.08 "Hg
* Reported May 13 5:00 AM — May 28 5:00 AM, Nürburg, Weather by CustomWeather, © 2015

Note: Actual official high and low records may vary slightly from our data, if they occured in-between our weather recording intervals... More about our weather records

Advertising

Nürburg weather history for previous 24 hours

 ConditionsComfort  
Time TempWeatherWind HumidityBarometerVisibility
5:00 AM
Thu, May 28
N/APassing clouds.1 mphN/AN/A9 mi
4:00 AM48 °FOvercast.3 mph71%30.07 "Hg19 mi
3:00 AM47 °FOvercast.3 mph71%30.09 "Hg22 mi
2:00 AM47 °FOvercast.3 mph71%30.11 "Hg19 mi
1:00 AM47 °FOvercast.2 mph71%30.12 "Hg19 mi
12:00 AM48 °FOvercast.5 mph67%30.13 "Hg18 mi
10:00 PM
Wed, May 27
51 °FOvercast.5 mph61%30.15 "Hg19 mi
9:00 PM52 °FScattered clouds.5 mph60%30.15 "Hg31 mi
8:00 PM55 °FScattered clouds.3 mph54%30.16 "Hg31 mi
7:00 PM56 °FPartly sunny.2 mph46%30.16 "Hg34 mi
6:00 PM55 °FPartly sunny.5 mph48%30.19 "Hg34 mi
4:00 PM56 °FPartly sunny.3 mph50%30.20 "Hg31 mi
3:00 PM54 °FOvercast.3 mph50%30.23 "Hg34 mi
2:00 PM55 °FScattered clouds.2 mph51%30.24 "Hg31 mi
1:00 PM52 °FPartly sunny.2 mph54%30.27 "Hg31 mi
12:00 PM50 °FOvercast.2 mph55%30.28 "Hg31 mi
10:00 AM46 °FOvercast.2 mph67%30.30 "Hg31 mi
9:00 AM46 °FOvercast.1 mph77%30.29 "Hg31 mi
8:00 AM43 °FOvercast.1 mph83%30.29 "Hg31 mi
7:00 AM42 °FOvercast.1 mph85%30.28 "Hg31 mi
Weather by CustomWeather, © 2015

See weather overviewHow to use our weather pages